Cancun, Mexico

5:30 AM on July 27, 2017 (GMT +0000)
Cancun International

Weather History for MMUN - January, 2014

Change the Weather History Date:

Wednesday, January 1, 2014

  Actual Average Record
Temperature  
Mean Temperature 80 °F -  
Max Temperature 84 °F 81 °F 87 °F (2006)
Min Temperature 75 °F 63 °F 57 °F (2000)
Cooling Degree Days 14    
Growing Degree Days 30 (Base 50)    
Moisture  
Dew Point 73 °F    
Average Humidity 81    
Maximum Humidity 94    
Minimum Humidity 70    
Precipitation  
Precipitation 0.00 in - - ()
Sea Level Pressure  
Sea Level Pressure 30.00 in    
Wind  
Wind Speed 6 mph ()    
Max Wind Speed 12 mph    
Max Gust Speed -    
Visibility 6.8 miles    
Events Rain    
Averages and records for this station are not official NWS values.
T = Trace of Precipitation, MM = Missing Value Source: Averaged Metar Reports

Daily Weather History Graph

Daily Weather History Graph

Search for Another Location

Airport or City:

Trip Planner

Search our weather history database for the weather conditions in past years. The results will help you decide how hot, cold, wet, or windy it might be!

Date:

Astronomy

Jan. 01, 2014 Rise Set
Actual Time 6:24 AM CST 5:17 PM CST
Civil Twilight 6:00 AM CST 5:41 PM CST
Nautical Twilight 5:32 AM CST 6:09 PM CST
Astronomical Twilight 5:05 AM CST 6:36 PM CST
Moon 6:22 AM CST (1/1) 5:52 PM CST (1/1)
Length of Visible Light 11h 41m
Length of Day
10h 53m
New Moon, 0% of the Moon is Illuminated
Jan 1
New Moon
Jan 7
First Quarter
Jan 15
Full
Jan 23
Last Quarter
Jan 30
New

Hourly Weather History & Observations

Time (CST) Temp. Heat Index Dew Point Humidity Pressure Visibility Wind Dir Wind Speed Gust Speed Precip Events Conditions
12:45 AM 78.8 °F - 73.4 °F 83% 30.05 in 7.0 mi East 5.8 mph - N/A   Mostly Cloudy
1:44 AM 77.0 °F - 73.4 °F 89% 30.03 in 6.0 mi South 5.8 mph - N/A Rain Light Rain
2:48 AM 75.2 °F - 73.4 °F 94% 29.97 in 6.0 mi East 5.8 mph - N/A Rain Light Rain
3:47 AM 75.2 °F - 73.4 °F 94% 30.01 in 6.0 mi East 6.9 mph - N/A   Mostly Cloudy
4:46 AM 75.2 °F - 71.6 °F 89% 30.02 in 6.0 mi SE 5.8 mph - N/A   Scattered Clouds
5:45 AM 77.0 °F - 71.6 °F 83% 30.00 in 6.0 mi ESE 5.8 mph - N/A   Scattered Clouds
6:47 AM 77.0 °F - 71.6 °F 83% 30.04 in 7.0 mi ESE 5.8 mph - N/A   Scattered Clouds
7:43 AM 80.6 °F 85.4 °F 73.4 °F 79% 30.06 in 7.0 mi ESE 5.8 mph - N/A   Scattered Clouds
8:43 AM 80.6 °F 85.4 °F 73.4 °F 79% 30.05 in 7.0 mi ESE 8.1 mph - N/A   Scattered Clouds
9:42 AM 82.4 °F 88.2 °F 73.4 °F 74% 30.08 in 7.0 mi SE 11.5 mph - N/A   Mostly Cloudy
10:42 AM 82.4 °F 88.2 °F 73.4 °F 74% 30.07 in 7.0 mi SE 11.5 mph - N/A   Mostly Cloudy
11:45 AM 84.2 °F 90.9 °F 73.4 °F 70% 30.03 in 7.0 mi SE 10.4 mph - N/A   Mostly Cloudy
12:40 PM 84.2 °F 90.9 °F 73.4 °F 70% 30.01 in 7.0 mi SE 10.4 mph - N/A   Scattered Clouds
1:42 PM 84.2 °F 90.9 °F 73.4 °F 70% 29.99 in 7.0 mi SE 9.2 mph - N/A   Mostly Cloudy
2:42 PM 82.4 °F 88.2 °F 73.4 °F 74% 29.95 in 7.0 mi SE 11.5 mph - N/A   Mostly Cloudy
3:47 PM 82.4 °F 88.2 °F 73.4 °F 74% 29.96 in 7.0 mi SE 9.2 mph - N/A   Scattered Clouds
4:45 PM 80.6 °F 84.6 °F 71.6 °F 74% 29.96 in 7.0 mi SE 6.9 mph - N/A   Scattered Clouds
5:49 PM 78.8 °F - 73.4 °F 83% 29.94 in 7.0 mi ESE 5.8 mph - N/A   Scattered Clouds
6:46 PM 78.8 °F - 73.4 °F 83% 29.97 in 7.0 mi SE 6.9 mph - N/A   Partly Cloudy
7:43 PM 78.8 °F - 73.4 °F 83% 29.98 in 7.0 mi SE 6.9 mph - N/A   Partly Cloudy
8:42 PM 77.0 °F - 73.4 °F 89% 29.97 in 7.0 mi SE 5.8 mph - N/A   Clear
9:41 PM 77.0 °F - 73.4 °F 89% 30.00 in 7.0 mi SE 3.5 mph - N/A   Scattered Clouds
10:42 PM 77.0 °F - 73.4 °F 89% 29.99 in 7.0 mi ESE 4.6 mph - N/A   Scattered Clouds
11:49 PM 77.0 °F - 71.6 °F 83% 29.96 in 7.0 mi SE 6.9 mph - N/A   Scattered Clouds